{"data":{"norad_id":60129,"intl_designator":"2024-118S","name":"STARLINK-31845","alt_names":[],"object_type":"PAYLOAD","status":"ACTIVE","operator":null,"country":"US","launch_date":"2024-06-24","launch_site_code":"AFWTR","launch_vehicle":null,"mission":null,"orbit_class":"UNKNOWN","rcs_meters":null,"size_class":null,"mass_kg":null,"dimensions":null,"purposes":["comms"],"wikipedia_slug":null,"has_3d_model":false,"image_url":null,"decayed_at":null,"tle_current":{"epoch":"2026-09-21T05:24:11.439360Z","epoch_age_seconds":118900,"freshness":"FRESH","line1":"1 60129U 24118S   26264.22513240  .00000239  00000+0  18210-4 0  9992","line2":"2 60129  53.1594 194.2210 0001209  74.1988 285.9148 15.34398833125692","mean_motion":15.34398833,"eccentricity":0.0001209,"inclination_deg":53.1594,"raan_deg":194.221,"arg_perigee_deg":74.1988,"mean_anomaly_deg":285.9148,"bstar":1.821e-5,"rev_number":12569,"period_min":93.84782945804,"perigee_km":461.87965077485,"apogee_km":463.53376678363,"semimajor_km":6840.8437087792,"source":"CELESTRAK","updated_at":"2026-09-22T09:00:49.158091Z"}}}